カタログに戻る

ARIANE 2 DEB

LostHEO
NORAD 27031·DEBRIS·🇫🇷 France

打ち上げ Jan 27, 1989 から Guiana Space Centre

Loading…

次のパス (今後24時間)

TLE

古いSource: Space-Track

元期: Oct 7, 2025, 05:16 UTC

1 27031U 89006L   25280.21977868  .00076948  00000-0  55985-1 0  9998
2 27031   7.9723 344.2755 6433661 253.1926  30.8828  3.35214818239558

AllMySatでARIANE 2 DEBをリアルタイム追跡

Download on the App Store